Location: Eferding
(48.3167°N, 14.0167°E)
Time: 20:45:14
(UTC+00:00)

Cosmos 2263 Rocket - Pass Details

Date: 12 November 2019
Orbit: 825 x 847 km, 71.0° (Epoch: 07 December)

Event Time Altitude Azimuth Distance (km) Brightness Sun altitude
Rises 18:07:58 0° 335° (NNW) 3,378 5.7 -26.4°
Reaches altitude 10° 18:10:38 10° 345° (NNW) 2,439 4.8 -26.8°
Enters shadow 18:13:30 26° 8° (N) 1,595 3.5 -27.3°
